QPF
0.00 0.00 0.00 0.00 0.00 0.00 0.00 0.00 0.00 0.00 0.00 0.00 0.00 0.00 0.00 0.00 0.00 0.00 0.00 0.00 0.00 0.00 0.00 0.00 0.00 0.00 0.00 0.00 0.00 0.00 0.00 0.00 0.00 0.00 0.00 0.00 0.00 0.00 0.00 0.00 0.00 0.00 0.00 0.00
0.00 0.00 0.00 0.00 0.00 0.00 0.00 0.00 0.00 0.00 0.00 0.00 0.00 0.00 0.00 0.00 0.00 0.00 0.00 0.00 0.00 0.00 0.00 0.00 0.00 0.00 0.00 0.00 0.00 0.00 0.00 0.00 0.00 0.00 0.00 0.00 0.00 0.00 0.00 0.00 0.00 0.00 0.00 0.00
0.00 0.00 0.00 0.00 0.00 0.00 0.00 0.00 0.00 0.00 0.00 0.00 0.00 0.00 0.00 0.00 0.00 0.00 0.00 0.00 0.00 0.00 0.00 0.00 0.00 0.00 0.00 0.00 0.00 0.00 0.00 0.00 0.00 0.00 0.00 0.00 0.00 0.00 0.00 0.00 0.00 0.00 0.00 0.00
0.00 0.00 0.00 0.00 0.00 0.00 0.00 0.00 0.00 0.00 0.00 0.00 0.00 0.00 0.00 0.00 0.00 0.00 0.00 0.00 0.00 0.00 0.00 0.00 0.00 0.00 0.00 0.00 0.00 0.00 0.00 0.00 0.00 0.00 0.00 0.00 0.00 0.00 0.00 0.00 0.00 0.00 0.00 0.00
0.00 0.00 0.00 0.00 0.00 0.00 0.00 0.00 0.00 0.00 0.00 0.00 0.00 0.00 0.00 0.00 0.00 0.00 0.00 0.00 0.00 0.00 0.00 0.00 0.00 0.00 0.00 0.00 0.00 0.00 0.00 0.00 0.00 0.00 0.00 0.00 0.00 0.00 0.00 0.00 0.00 0.00 0.00 0.00
0.00 0.00 0.00 0.00 0.00 0.00 0.00 0.00 0.00 0.00 0.00 0.00 0.00 0.00 0.00 0.00 0.00 0.00 0.00 0.00 0.00 0.00 0.00 0.00 0.00 0.00 0.00 0.00 0.00 0.00 0.00 0.00 0.00 0.00 0.00 0.00 0.00 0.00 0.00 0.00 0.00 0.00 0.00 0.00
0.00 0.00 0.00 0.00 0.00 0.00 0.00 0.00 0.00 0.00 0.00 0.00 0.00 0.00 0.00 0.00 0.00 0.00 0.00 0.00 0.00 0.00 0.00 0.00 0.00 0.00 0.00 0.00 0.00 0.00 0.00 0.00 0.00 0.00 0.00 0.00 0.00 0.00 0.00 0.00 0.00 0.00 0.00 0.00
0.00 0.00 0.00 0.00 0.00 0.00 0.00 0.00 0.00 0.00 0.00 0.00 0.00 0.00 0.00 0.00 0.00 0.00 0.00 0.00 0.00 0.00 0.00 0.00 0.00 0.00 0.00 0.00 0.00 0.00 0.00 0.00 0.00 0.00 0.00 0.00 0.00 0.00 0.00 0.00 0.00 0.00 0.00 0.00
0.00 0.00 0.00 0.00 0.00 0.00 0.00 0.00 0.00 0.00 0.00 0.00 0.00 0.00 0.00 0.00 0.00 0.00 0.00 0.00 0.00 0.00 0.00 0.00 0.00 0.00 0.00 0.00 0.00 0.00 0.00 0.00 0.00 0.00 0.00 0.00 0.00 0.00 0.00 0.00 0.00 0.00 0.00 0.00
0.00 0.00 0.00 0.00 0.00 0.00 0.00 0.00 0.00 0.00 0.00 0.00 0.00 0.00 0.00 0.00 0.00 0.00 0.00 0.00 0.00 0.00 0.00 0.00 0.00 0.00 0.00 0.00 0.00 0.00 0.00 0.00 0.00 0.00 0.00 0.00 0.00 0.00 0.00 0.00 0.00 0.00 0.00 0.00
0.00 0.00 0.00 0.00 0.00 0.00 0.00 0.00 0.00 0.00 0.00 0.00 0.00 0.00 0.00 0.00 0.00 0.00 0.00 0.00 0.00 0.00 0.00 0.00 0.00 0.00 0.00 0.00 0.00 0.00 0.00 0.00 0.00 0.00 0.00 0.00 0.00 0.00 0.00 0.00 0.00 0.00 0.00 0.00
0.00 0.00 0.00 0.00 0.00 0.00 0.00 0.00 0.00 0.00 0.00 0.00 0.00 0.00 0.00 0.00 0.00 0.00 0.00 0.00 0.00 0.00 0.00 0.00 0.00 0.00 0.00 0.00 0.00 0.00 0.00 0.00 0.00 0.00 0.00 0.00 0.00 0.00 0.00 0.00 0.00 0.00 0.00 0.00
0.00 0.00 0.00 0.00 0.00 0.00 0.00 0.00 0.00 0.00 0.00 0.00 0.00 0.00 0.00 0.00 0.00 0.00 0.00 0.00 0.00 0.00 0.00 0.00 0.00 0.00 0.00 0.00 0.00 0.00 0.00 0.00 0.00 0.00 0.00 0.00 0.00 0.00 0.00 0.00 0.00 0.00 0.00 0.00
0.00 0.00 0.00 0.00 0.00 0.00 0.00 0.00 0.00 0.00 0.00 0.00 0.00 0.00 0.00 0.00 0.00 0.00 0.00 0.00 0.00 0.00 0.00 0.00 0.00 0.00 0.00 0.00 0.00 0.00 0.00 0.00 0.00 0.00 0.00 0.00 0.00 0.00 0.00 0.00 0.00 0.00 0.00 0.00
0.00 0.00 0.00 0.00 0.00 0.00 0.00 0.00 0.00 0.00 0.00 0.00 0.00 0.00 0.00 0.00 0.00 0.00 0.00 0.00 0.00 0.00 0.00 0.00 0.00 0.00 0.00 0.00 0.00 0.00 0.00 0.00 0.00 0.00 0.00 0.00 0.00 0.00 0.00 0.00 0.00 0.00 0.00 0.00
0.00 0.00 0.00 0.00 0.00 0.00 0.00 0.00 0.00 0.00 0.00 0.00 0.00 0.00 0.00 0.00 0.00 0.00 0.00 0.00 0.00 0.00 0.00 0.00 0.00 0.00 0.00 0.00 0.00 0.00 0.00 0.00 0.00 0.00 0.00 0.00 0.00 0.00 0.00 0.00 0.00 0.00 0.00 0.00
0.00 0.00 0.00 0.00 0.00 0.00 0.00 0.00 0.00 0.00 0.00 0.00 0.00 0.00 0.00 0.00 0.00 0.00 0.00 0.00 0.00 0.00 0.00 0.00 0.00 0.00 0.00 0.00 0.00 0.00 0.00 0.00 0.00 0.00 0.00 0.00 0.00 0.00 0.00 0.00 0.00 0.00 0.00 0.00
0.00 0.00 0.00 0.00 0.00 0.00 0.00 0.00 0.00 0.00 0.00 0.00 0.00 0.00 0.00 0.00 0.00 0.00 0.00 0.00 0.00 0.00 0.00 0.00 0.00 0.00 0.00 0.00 0.00 0.00 0.00 0.00 0.00 0.00 0.00 0.00 0.00 0.00 0.00 0.00 0.00 0.00 0.00 0.00
0.00 0.00 0.00 0.00 0.00 0.00 0.00 0.00 0.00 0.00 0.00 0.00 0.00 0.00 0.00 0.00 0.00 0.00 0.00 0.00 0.00 0.00 0.00 0.00 0.00 0.00 0.00 0.00 0.00 0.00 0.00 0.00 0.00 0.00 0.00 0.00 0.00 0.00 0.00 0.00 0.00 0.00 0.00 0.00
0.00 0.00 0.00 0.00 0.00 0.00 0.00 0.00 0.00 0.00 0.00 0.00 0.00 0.00 0.00 0.00 0.00 0.00 0.00 0.00 0.00 0.00 0.00 0.00 0.00 0.00 0.00 0.00 0.00 0.00 0.00 0.00 0.00 0.00 0.00 0.00 0.00 0.00 0.00 0.00 0.00 0.00 0.00 0.00
0.00 0.00 0.00 0.00 0.00 0.00 0.00 0.00 0.00 0.00 0.00 0.00 0.00 0.00 0.00 0.00 0.00 0.00 0.00 0.00 0.00 0.00 0.00 0.00 0.00 0.00 0.00 0.00 0.00 0.00 0.00 0.00 0.00 0.00 0.00 0.00 0.00 0.00 0.00 0.00 0.00 0.00 0.00 0.00
0.00 0.00 0.00 0.00 0.00 0.00 0.00 0.00 0.00 0.00 0.00 0.00 0.00 0.00 0.00 0.00 0.00 0.00 0.00 0.00 0.00 0.00 0.00 0.00 0.00 0.00 0.00 0.00 0.00 0.00 0.00 0.00 0.00 0.00 0.00 0.00 0.00 0.00 0.00 0.00 0.00 0.00 0.00 0.00
0.00 0.00 0.00 0.00 0.00 0.00 0.00 0.00 0.00 0.00 0.00 0.00 0.00 0.00 0.00 0.00 0.00 0.00 0.00 0.00 0.00 0.00 0.00 0.00 0.00 0.00 0.00 0.00 0.00 0.00 0.00 0.00 0.00 0.00 0.00 0.00 0.00 0.00 0.00 0.00 0.00 0.00 0.00 0.00
0.00 0.00 0.00 0.00 0.00 0.00 0.00 0.00 0.00 0.00 0.00 0.00 0.00 0.00 0.00 0.00 0.00 0.00 0.00 0.00 0.00 0.00 0.00 0.00 0.00 0.00 0.00 0.00 0.00 0.00 0.00 0.00 0.00 0.00 0.00 0.00 0.00 0.00 0.00 0.00 0.00 0.00 0.00 0.00
0.00 0.00 0.00 0.00 0.00 0.00 0.00 0.00 0.00 0.00 0.00 0.00 0.00 0.00 0.00 0.00 0.00 0.00 0.00 0.00 0.00 0.00 0.00 0.00 0.00 0.00 0.00 0.00 0.00 0.00 0.00 0.00 0.00 0.00 0.00 0.00 0.00 0.00 0.00 0.00 0.00 0.00 0.00 0.00
0.00 0.00 0.00 0.00 0.00 0.00 0.00 0.00 0.00 0.00 0.00 0.00 0.00 0.00 0.00 0.00 0.00 0.00 0.00 0.00 0.00 0.00 0.00 0.00 0.00 0.00 0.00 0.00 0.00 0.00 0.00 0.00 0.00 0.00 0.00 0.00 0.00 0.00 0.00 0.00 0.00 0.00 0.00 0.00
MSLP
1015.04 1014.76 1014.01 1014.03 1014.10 1014.19 1013.91 1013.70 1013.58 1013.60 1013.52 1013.16 1011.43 1009.59 1008.25 1007.73 1007.78 1007.62 1007.70 1008.11 1008.89 1009.90 1010.90 1011.43 1012.04 1012.66 1013.23 1013.73 1014.56 1015.45 1015.99 1016.58 1016.72 1016.62 1016.58 1016.62 1016.47 1016.76 1016.74 1016.53 1016.37 1016.17 1016.26 1016.08
1015.02 1014.36 1014.04 1014.19 1014.27 1014.44 1014.35 1014.03 1013.57 1013.58 1013.73 1013.33 1011.48 1009.14 1007.48 1007.08 1007.34 1007.67 1007.92 1008.43 1009.25 1010.26 1011.26 1011.99 1012.38 1012.89 1013.36 1013.84 1014.64 1015.34 1015.91 1016.59 1016.91 1016.77 1016.86 1016.66 1016.82 1016.67 1016.73 1016.57 1016.29 1016.25 1016.04 1015.92
1014.26 1014.34 1014.35 1014.44 1014.84 1014.72 1014.52 1014.25 1014.00 1013.93 1013.70 1013.29 1012.22 1009.16 1007.29 1006.86 1007.23 1007.53 1007.94 1008.86 1009.63 1010.12 1011.04 1011.99 1012.62 1013.07 1013.52 1014.03 1014.74 1015.24 1015.99 1016.39 1016.52 1016.86 1017.06 1017.02 1016.86 1016.78 1016.51 1016.40 1016.21 1016.16 1016.08 1016.17
1014.82 1014.87 1014.58 1014.85 1014.94 1014.83 1014.77 1014.56 1014.55 1014.51 1013.86 1013.03 1012.50 1009.51 1006.97 1006.69 1006.52 1006.83 1007.35 1008.43 1009.41 1010.24 1011.13 1011.84 1012.58 1013.17 1013.64 1014.24 1014.87 1015.49 1016.16 1016.55 1016.56 1016.65 1016.87 1016.79 1016.43 1016.29 1016.51 1016.26 1016.19 1016.25 1016.09 1016.28
1014.93 1015.10 1015.06 1015.16 1015.17 1015.02 1015.05 1015.14 1014.96 1015.00 1014.19 1013.66 1012.46 1010.80 1006.90 1006.59 1005.87 1006.05 1006.86 1008.20 1009.33 1010.12 1011.02 1011.84 1012.49 1012.99 1013.51 1014.41 1014.88 1015.70 1016.26 1016.56 1016.80 1016.70 1016.76 1016.59 1016.43 1016.45 1016.40 1016.40 1016.28 1016.14 1016.20 1016.00
1015.34 1015.52 1015.53 1015.56 1015.83 1015.80 1015.83 1015.29 1015.58 1015.30 1014.86 1014.16 1012.54 1011.10 1007.61 1006.37 1006.50 1006.56 1007.44 1008.40 1009.41 1010.33 1011.16 1011.88 1012.68 1013.27 1013.83 1014.52 1015.03 1015.47 1015.97 1016.33 1016.81 1016.84 1016.80 1016.51 1016.57 1016.47 1016.60 1016.68 1016.49 1016.11 1016.14 1015.89
1015.69 1015.84 1015.96 1015.98 1016.25 1016.59 1015.96 1015.21 1015.64 1015.51 1015.07 1014.08 1013.16 1011.84 1007.84 1007.04 1007.25 1007.32 1007.83 1008.72 1009.65 1010.49 1011.23 1012.01 1012.71 1013.16 1013.71 1014.46 1015.12 1015.57 1015.97 1016.01 1016.54 1016.67 1016.65 1016.52 1016.70 1016.52 1016.66 1016.81 1016.66 1016.49 1016.37 1016.37
1015.22 1016.27 1016.27 1016.19 1016.00 1016.00 1016.04 1015.30 1014.92 1014.69 1015.02 1014.20 1013.59 1010.96 1008.07 1007.98 1008.11 1008.03 1008.53 1009.21 1009.80 1010.51 1011.22 1011.93 1012.46 1012.96 1013.62 1014.33 1015.20 1015.59 1015.80 1015.91 1016.38 1016.56 1016.56 1016.51 1016.71 1016.57 1016.73 1017.00 1016.66 1016.68 1016.70 1016.42
1014.67 1015.97 1016.82 1016.77 1016.69 1016.52 1016.41 1016.00 1015.56 1015.35 1016.44 1014.47 1012.14 1010.07 1008.34 1008.51 1008.36 1008.30 1008.79 1009.46 1010.02 1010.62 1011.20 1011.88 1012.50 1013.05 1013.52 1014.14 1014.71 1015.38 1015.84 1015.94 1016.17 1016.33 1016.48 1016.55 1016.64 1016.52 1016.68 1016.99 1017.10 1016.80 1016.77 1016.51
1013.82 1015.71 1017.19 1017.37 1017.39 1016.96 1016.31 1015.62 1015.62 1015.42 1015.08 1013.74 1012.12 1010.78 1008.88 1009.16 1009.04 1009.02 1009.34 1009.77 1010.13 1010.64 1011.23 1011.85 1012.40 1012.98 1013.50 1014.05 1014.66 1015.09 1015.70 1015.75 1016.14 1016.29 1016.33 1016.44 1016.53 1016.64 1016.64 1016.95 1016.83 1016.64 1016.50 1016.32
1013.87 1014.79 1017.74 1017.89 1017.33 1016.50 1016.86 1015.80 1015.32 1015.21 1014.52 1013.38 1012.34 1010.37 1009.69 1009.98 1010.07 1010.00 1010.19 1010.37 1010.52 1010.65 1011.09 1011.76 1012.41 1012.92 1013.44 1014.22 1014.92 1015.26 1015.65 1015.78 1016.07 1016.37 1016.32 1016.39 1016.51 1016.67 1016.40 1016.70 1016.84 1016.61 1016.46 1016.25
1014.00 1014.74 1016.53 1017.30 1017.28 1017.19 1016.38 1015.40 1014.56 1014.25 1014.49 1014.19 1013.00 1010.72 1010.05 1010.50 1010.51 1010.53 1010.70 1010.92 1010.95 1011.02 1010.89 1011.30 1011.86 1012.62 1013.23 1013.97 1014.61 1015.10 1015.45 1015.66 1015.84 1016.24 1016.23 1016.40 1016.44 1016.58 1016.33 1016.38 1016.52 1016.56 1016.35 1016.20
1013.47 1014.52 1016.18 1017.32 1017.63 1017.21 1016.40 1015.54 1014.91 1014.42 1014.16 1014.04 1013.09 1011.19 1010.47 1010.99 1010.93 1010.89 1011.08 1010.97 1011.16 1011.29 1011.17 1011.28 1011.59 1012.28 1012.99 1013.42 1013.96 1014.48 1015.08 1015.45 1015.80 1016.14 1016.12 1016.29 1016.34 1016.46 1016.13 1016.09 1016.46 1016.47 1016.29 1016.14
1013.19 1014.21 1014.79 1015.20 1015.03 1015.02 1015.86 1015.34 1015.15 1014.79 1014.50 1013.68 1012.71 1011.76 1011.17 1011.26 1010.64 1010.66 1011.01 1011.33 1011.35 1011.43 1011.45 1011.41 1011.56 1011.86 1012.46 1013.04 1013.53 1014.13 1014.54 1015.15 1015.59 1015.88 1016.03 1015.95 1016.02 1016.29 1016.16 1016.09 1016.26 1016.39 1016.32 1016.12
1013.73 1014.40 1015.00 1015.40 1015.34 1015.01 1015.06 1015.08 1015.06 1014.96 1014.39 1013.94 1012.90 1012.32 1011.55 1011.23 1011.17 1010.10 1011.33 1011.12 1011.23 1011.45 1011.77 1011.42 1011.45 1011.81 1012.32 1012.81 1013.38 1014.05 1014.44 1014.70 1015.21 1015.77 1015.87 1015.76 1015.83 1015.99 1016.20 1016.13 1016.18 1016.28 1016.20 1015.97
1014.04 1014.81 1015.29 1015.72 1015.61 1015.56 1015.35 1014.99 1014.99 1014.93 1014.68 1014.16 1013.39 1012.28 1011.79 1011.37 1011.06 1011.30 1011.02 1011.12 1011.25 1011.51 1011.56 1011.31 1011.43 1011.78 1011.94 1012.22 1012.56 1013.32 1014.39 1014.90 1015.02 1015.47 1015.73 1015.62 1015.71 1015.82 1016.12 1016.10 1016.07 1016.16 1016.23 1016.18
1014.22 1014.73 1015.42 1015.67 1015.78 1015.40 1015.02 1013.81 1014.13 1014.09 1013.75 1013.32 1013.02 1011.52 1011.47 1011.40 1011.32 1011.46 1011.61 1011.68 1011.65 1011.50 1011.42 1011.37 1011.26 1011.44 1011.45 1011.70 1012.13 1012.26 1013.17 1014.22 1014.78 1015.10 1015.79 1015.69 1015.52 1015.72 1015.99 1016.17 1016.03 1016.14 1016.30 1016.48
1014.37 1014.74 1015.33 1015.65 1015.83 1015.01 1013.05 1012.95 1012.84 1012.81 1012.60 1012.56 1012.19 1011.74 1011.45 1011.29 1011.41 1011.74 1011.97 1012.07 1011.97 1011.79 1011.73 1011.56 1011.18 1011.05 1010.93 1011.14 1012.01 1012.30 1012.88 1013.60 1014.51 1014.80 1015.34 1015.68 1015.68 1015.80 1016.02 1016.38 1016.17 1016.20 1016.43 1016.76
1014.57 1014.95 1015.08 1014.95 1014.58 1013.77 1012.60 1012.34 1012.48 1012.06 1012.10 1011.99 1011.99 1011.72 1011.30 1011.32 1011.75 1012.01 1012.27 1012.34 1012.29 1012.21 1011.99 1011.88 1011.67 1011.27 1010.78 1011.10 1011.59 1012.22 1012.69 1013.32 1013.77 1014.52 1014.88 1015.16 1015.48 1015.72 1015.93 1016.35 1016.38 1016.47 1016.49 1016.91
1014.95 1014.79 1014.71 1014.77 1013.94 1012.93 1011.72 1011.64 1011.64 1011.77 1011.73 1011.70 1011.91 1011.80 1011.50 1011.35 1011.80 1012.47 1012.70 1012.76 1012.66 1012.52 1012.49 1012.28 1011.90 1011.76 1011.16 1011.28 1011.81 1012.15 1012.73 1013.14 1013.20 1014.17 1014.48 1014.78 1015.14 1015.50 1015.84 1016.16 1016.71 1016.86 1016.96 1017.10
1014.73 1014.63 1014.18 1013.93 1013.34 1012.55 1011.63 1011.58 1011.84 1011.86 1011.67 1011.61 1011.96 1012.12 1012.09 1012.11 1012.72 1013.14 1013.20 1013.04 1013.10 1013.02 1013.05 1012.70 1012.58 1012.13 1011.91 1011.76 1012.00 1012.29 1012.57 1012.76 1013.15 1013.73 1014.49 1014.95 1015.12 1015.33 1015.64 1016.09 1016.75 1017.12 1017.50 1017.73
1013.56 1013.74 1013.61 1013.67 1012.99 1012.00 1011.27 1011.77 1011.64 1011.29 1011.51 1011.91 1012.35 1012.67 1012.87 1013.05 1013.34 1013.60 1013.56 1013.51 1013.28 1013.07 1012.77 1012.55 1012.47 1012.40 1012.34 1012.35 1012.76 1012.47 1012.48 1012.99 1013.01 1013.81 1014.37 1014.77 1015.33 1015.49 1015.69 1016.12 1016.75 1017.29 1017.70 1017.99
1013.39 1012.31 1012.43 1012.46 1011.65 1011.17 1011.20 1010.97 1011.17 1011.42 1011.69 1012.46 1012.72 1013.20 1013.30 1013.53 1013.79 1013.88 1013.87 1013.70 1013.49 1013.51 1013.44 1013.40 1013.28 1012.96 1012.86 1012.86 1012.96 1012.97 1012.68 1013.08 1013.30 1013.74 1014.22 1014.71 1015.30 1015.60 1015.83 1016.05 1016.68 1017.27 1017.78 1018.02
1012.99 1012.59 1012.30 1012.44 1011.62 1011.49 1011.46 1011.60 1011.70 1011.93 1012.31 1012.91 1013.34 1013.71 1013.91 1014.02 1014.16 1014.08 1014.06 1014.01 1013.99 1013.91 1013.76 1013.77 1013.63 1013.35 1013.08 1012.82 1012.98 1013.13 1013.01 1013.14 1013.56 1013.78 1014.20 1014.77 1015.12 1015.69 1015.89 1016.17 1016.47 1016.88 1017.31 1017.79
1011.93 1012.17 1012.25 1012.13 1012.15 1012.04 1012.02 1011.95 1012.19 1012.73 1013.11 1013.45 1013.95 1014.32 1014.46 1014.62 1014.71 1014.78 1014.72 1014.63 1014.53 1014.31 1013.96 1013.81 1013.80 1013.65 1013.28 1013.04 1012.93 1013.05 1013.24 1013.34 1013.46 1013.98 1014.17 1014.79 1015.01 1015.50 1015.73 1016.16 1016.22 1016.45 1016.64 1016.96
1011.42 1011.46 1011.39 1011.16 1011.28 1011.36 1011.72 1012.22 1012.75 1013.12 1013.50 1013.88 1014.25 1014.79 1014.79 1014.76 1015.03 1015.16 1015.05 1014.82 1014.62 1014.52 1014.27 1013.96 1013.98 1013.82 1013.36 1013.18 1013.11 1013.05 1013.16 1013.42 1013.58 1013.67 1014.00 1014.48 1014.77 1015.26 1015.59 1015.96 1016.42 1016.48 1016.72 1016.94
Thickness
5636 5643 5651 5652 5654 5649 5652 5652 5654 5657 5654 5653 5670 5682 5695 5701 5698 5698 5700 5696 5689 5678 5669 5665 5660 5654 5647 5641 5631 5621 5614 5605 5600 5596 5590 5582 5573 5559 5543 5527 5514 5502 5491 5486
5631 5638 5646 5644 5643 5640 5640 5644 5652 5652 5644 5644 5661 5678 5701 5701 5695 5694 5693 5690 5681 5671 5663 5656 5654 5648 5643 5637 5628 5619 5612 5602 5595 5592 5584 5578 5566 5554 5535 5520 5510 5497 5493 5489
5633 5635 5630 5635 5629 5631 5635 5639 5642 5644 5642 5638 5641 5677 5696 5696 5689 5689 5687 5679 5673 5672 5663 5654 5648 5643 5638 5632 5624 5617 5608 5601 5596 5588 5580 5571 5564 5550 5537 5525 5515 5506 5499 5491
5618 5618 5625 5624 5626 5630 5629 5631 5628 5627 5635 5643 5635 5655 5696 5691 5693 5689 5689 5680 5674 5666 5660 5653 5645 5639 5634 5627 5620 5612 5603 5597 5593 5588 5579 5573 5569 5557 5541 5532 5523 5513 5506 5497
5610 5606 5611 5615 5621 5622 5626 5617 5620 5618 5624 5624 5632 5637 5691 5684 5699 5701 5690 5679 5671 5665 5658 5650 5643 5639 5633 5622 5617 5608 5600 5594 5589 5585 5578 5574 5567 5557 5546 5538 5530 5522 5513 5506
5593 5591 5600 5608 5598 5602 5602 5610 5606 5606 5609 5606 5619 5628 5671 5687 5685 5686 5677 5672 5664 5657 5652 5646 5639 5633 5626 5618 5612 5607 5599 5594 5587 5582 5577 5574 5566 5560 5550 5539 5535 5530 5522 5517
5581 5586 5585 5589 5595 5589 5596 5608 5603 5604 5593 5613 5596 5607 5664 5675 5674 5674 5670 5665 5658 5652 5647 5640 5634 5631 5626 5616 5608 5603 5596 5595 5588 5582 5578 5574 5566 5561 5552 5542 5538 5534 5527 5521
5580 5576 5578 5579 5591 5597 5589 5600 5606 5604 5603 5610 5584 5612 5656 5655 5656 5659 5657 5654 5652 5647 5643 5637 5634 5630 5623 5614 5604 5599 5595 5594 5587 5581 5578 5574 5567 5562 5555 5545 5542 5536 5530 5526
5569 5568 5550 5558 5564 5576 5577 5582 5584 5570 5517 5582 5616 5630 5651 5643 5650 5652 5651 5645 5644 5641 5638 5634 5628 5624 5620 5612 5605 5598 5592 5590 5586 5582 5577 5573 5569 5564 5557 5548 5541 5539 5533 5530
5565 5554 5529 5542 5549 5557 5570 5577 5576 5573 5581 5586 5596 5603 5637 5626 5634 5641 5640 5641 5638 5635 5632 5628 5624 5619 5615 5609 5603 5598 5590 5589 5584 5581 5578 5573 5570 5565 5559 5552 5546 5543 5539 5535
5547 5561 5520 5529 5542 5562 5557 5565 5567 5573 5577 5590 5593 5615 5618 5615 5620 5626 5628 5629 5630 5629 5627 5624 5619 5614 5609 5602 5595 5591 5587 5585 5582 5577 5576 5573 5569 5565 5562 5556 5550 5548 5544 5541
5548 5548 5537 5535 5523 5527 5542 5566 5577 5583 5570 5562 5570 5606 5605 5605 5607 5614 5617 5617 5620 5620 5624 5622 5619 5612 5606 5599 5595 5589 5585 5583 5581 5576 5574 5570 5568 5564 5563 5560 5555 5551 5548 5545
5543 5537 5529 5528 5522 5519 5535 5553 5560 5564 5563 5555 5574 5601 5595 5593 5597 5602 5607 5610 5611 5611 5616 5616 5615 5611 5606 5603 5597 5593 5585 5582 5578 5575 5573 5570 5567 5564 5564 5562 5556 5552 5551 5548
5534 5512 5536 5556 5555 5548 5524 5534 5545 5551 5553 5566 5574 5582 5589 5578 5588 5597 5597 5599 5600 5601 5606 5610 5611 5609 5606 5602 5597 5592 5588 5581 5576 5573 5572 5571 5568 5564 5563 5561 5557 5555 5552 5551
5518 5517 5493 5497 5517 5533 5538 5524 5523 5524 5553 5553 5567 5562 5578 5575 5576 5592 5587 5593 5596 5580 5583 5596 5593 5597 5599 5597 5592 5587 5584 5580 5576 5570 5569 5570 5568 5565 5561 5560 5557 5554 5555 5553
5496 5492 5483 5490 5485 5493 5513 5523 5508 5507 5514 5527 5533 5548 5564 5569 5577 5576 5583 5586 5590 5592 5586 5583 5588 5586 5587 5586 5592 5586 5574 5572 5573 5569 5567 5568 5567 5565 5561 5559 5558 5556 5555 5554
5487 5477 5488 5501 5469 5487 5510 5510 5514 5515 5521 5539 5530 5561 5561 5559 5561 5563 5568 5571 5575 5580 5584 5587 5591 5584 5582 5587 5588 5588 5581 5573 5568 5567 5560 5562 5565 5564 5560 5558 5557 5555 5553 5551
5468 5476 5474 5481 5460 5491 5519 5510 5519 5520 5521 5525 5533 5540 5544 5547 5549 5550 5553 5555 5561 5565 5567 5571 5578 5583 5584 5582 5576 5579 5575 5569 5564 5563 5560 5558 5559 5558 5557 5553 5555 5553 5551 5547
5465 5461 5464 5479 5485 5493 5510 5502 5506 5520 5526 5525 5525 5532 5537 5534 5534 5538 5539 5540 5543 5547 5551 5553 5559 5565 5573 5571 5570 5569 5567 5564 5563 5558 5557 5556 5556 5554 5553 5551 5552 5550 5549 5545
5444 5449 5468 5445 5476 5485 5510 5504 5500 5507 5517 5520 5520 5524 5529 5533 5532 5530 5524 5525 5528 5533 5534 5537 5543 5547 5558 5558 5557 5559 5556 5556 5558 5553 5553 5553 5551 5551 5550 5549 5545 5544 5543 5541
5444 5448 5459 5456 5468 5475 5494 5494 5491 5506 5517 5511 5512 5510 5513 5517 5513 5508 5509 5514 5515 5516 5518 5524 5529 5535 5539 5543 5544 5545 5547 5550 5548 5547 5544 5544 5545 5546 5546 5544 5540 5538 5536 5534
5452 5450 5453 5449 5456 5466 5488 5481 5498 5502 5494 5494 5491 5490 5491 5493 5491 5491 5497 5500 5505 5510 5513 5514 5519 5521 5523 5526 5527 5534 5538 5535 5536 5536 5536 5536 5535 5536 5538 5538 5535 5532 5530 5529
5441 5464 5460 5469 5478 5475 5475 5485 5480 5480 5484 5477 5479 5474 5478 5478 5478 5480 5484 5489 5494 5497 5502 5500 5502 5505 5508 5509 5513 5517 5523 5522 5523 5528 5527 5527 5525 5527 5528 5531 5529 5527 5524 5526
5423 5430 5445 5447 5460 5463 5463 5463 5466 5468 5469 5466 5464 5463 5463 5466 5465 5471 5473 5476 5481 5483 5487 5487 5491 5496 5499 5500 5501 5504 5509 5512 5512 5517 5517 5516 5517 5516 5519 5521 5523 5524 5523 5521
5432 5428 5424 5432 5433 5443 5449 5454 5455 5450 5451 5451 5450 5451 5451 5453 5456 5455 5457 5458 5464 5468 5472 5475 5480 5484 5489 5491 5492 5494 5496 5499 5502 5503 5505 5505 5509 5508 5511 5513 5517 5519 5519 5521
5419 5424 5439 5449 5447 5453 5451 5443 5439 5439 5440 5442 5442 5437 5437 5441 5444 5442 5446 5449 5452 5455 5457 5463 5467 5471 5480 5482 5484 5485 5485 5488 5491 5495 5496 5497 5500 5501 5502 5504 5505 5509 5511 5512